Deer Park, WA
on Thursday, November 22, 2012

Thursday
Previous Day Next Day
Daily Summary
 ActualAverageRecord
Temperature
Mean Temperature °F 32°F  
Max Temperature 40°F 38°F 50°F (2002)
Min Temperature 26°F 25°F -5°F (2003)
Degree Days
Heating Degree Days 32 33  
Month to date heating degree days 586 656  
Since 1 July heating degree days 1498 1724  
Cooling Degree Days 0 0  
Month to date cooling degree days 0 0  
Year to date cooling degree days 232 187  
Moisture
Dew Point 30°F   
Average Humidity 85    
Maximum Humidity 100    
Minimum Humidity 70    
Precipitation
Precipitation 0.00 in 0.12 in 0.63 in (2001)
Month to date precipitation 3.29 2.38  
Year to date precipitation 23.29 18.44  
Wind
Wind Speed 5 mph   
Max Wind Speed 12 mph   
Max Gust Speed 32 mph   
Visibility 10 miles   
Events     

Key: T is trace of precipitation, MM is missing value
Source: NWS Daily Summary
Time(PST)TemperatureDew PointHumidity Pressure Visibility Wind DirectionWind SpeedGust SpeedPrecipitationEvents Conditions
12:53 AM 30.9°F 28.0°F 89% 30.24 in 10.0 miles SE 6.9 mph - N/A   Scattered Clouds
1:53 AM 32.0°F 28.9°F 88% 30.28 in 10.0 miles SE 6.9 mph - N/A   Overcast
2:53 AM 30.9°F 28.9°F 92% 30.32 in 10.0 miles SSE 5.8 mph - N/A   Mostly Cloudy
3:53 AM 28.0°F 27.0°F 96% 30.35 in 10.0 miles SSE 3.5 mph - N/A   Clear
4:53 AM 26.1°F 26.1°F 100% 30.38 in 10.0 miles Calm Calm - N/A   Scattered Clouds
5:18 AM 28.4°F 26.6°F 93% 30.33 in 10.0 miles Calm Calm - N/A   Mostly Cloudy
5:53 AM 30.9°F 28.9°F 92% 30.40 in 10.0 miles SSE 4.6 mph - N/A   Overcast
6:53 AM 30.9°F 30.0°F 96% 30.43 in 10.0 miles South 3.5 mph - N/A   Overcast
7:53 AM 30.9°F 30.0°F 96% 30.47 in 10.0 miles Calm Calm - N/A   Overcast
8:53 AM 32.0°F 30.0°F 92% 30.49 in 10.0 miles Calm Calm - N/A   Overcast
9:53 AM 34.0°F 30.0°F 85% 30.51 in 10.0 miles SSE 4.6 mph - N/A   Overcast
10:53 AM 35.1°F 30.9°F 85% 30.51 in 10.0 miles SSW 3.5 mph - N/A   Overcast
11:11 AM 35.6°F 30.2°F 81% 30.45 in 10.0 miles Calm Calm - N/A   Mostly Cloudy
11:53 AM 37.9°F 30.0°F 73% 30.51 in 10.0 miles Calm Calm - N/A   Overcast
12:15 PM 37.4°F 30.2°F 75% 30.45 in 10.0 miles Calm Calm - N/A   Scattered Clouds
12:53 PM 39.9°F 30.9°F 70% 30.50 in 10.0 miles Calm Calm - N/A   Partly Cloudy
1:11 PM 39.2°F 30.2°F 70% 30.44 in 10.0 miles Calm Calm - N/A   Mostly Cloudy
1:53 PM 39.0°F 32.0°F 76% 30.50 in 10.0 miles NNE 6.9 mph - N/A   Mostly Cloudy
2:53 PM 37.9°F 30.9°F 76% 30.50 in 10.0 miles NE 5.8 mph - N/A   Partly Cloudy
4:53 PM 36.0°F 30.9°F 82% 30.50 in 10.0 miles NNE 6.9 mph - N/A   Mostly Cloudy
5:53 PM 34.0°F 30.9°F 89% 30.49 in 10.0 miles NNE 8.1 mph - N/A   Partly Cloudy
6:53 PM 35.1°F 30.0°F 82% 30.48 in 10.0 miles NNE 9.2 mph - N/A   Overcast
7:53 PM 34.0°F 30.0°F 85% 30.47 in 10.0 miles NNE 8.1 mph - N/A   Scattered Clouds
8:53 PM 34.0°F 30.0°F 85% 30.46 in 10.0 miles NNE 8.1 mph - N/A   Overcast
9:53 PM 34.0°F 30.0°F 85% 30.45 in 10.0 miles NNE 8.1 mph - N/A   Mostly Cloudy
10:53 PM 35.1°F 30.0°F 82% 30.43 in 10.0 miles NNE 9.2 mph - N/A   Scattered Clouds
11:53 PM 35.1°F 30.0°F 82% 30.42 in 10.0 miles NNE 8.1 mph - N/A   Overcast
Moon Phase
Nov. 22 Nov. 28 Dec. 06 Dec. 13 Dec. 20
Sunrise:07:07 AM (PST) Moon Rise:01:12 PM (PST)11/22
Sunset:04:04 PM (PST) Moon Set:01:09 AM (PST)11/22

Copyright © 2014 The Weather Underground, Inc.